Simultaneous Nadir Overpasses (SNOs) Predictions

Prediction of SNOs between AQUA and NOAA-19 Satellite Orbit:

Table of predicted SNOs for the next 14.0 days since TLE Epoch: 10/28/2023
Index Date (AQUA) Time (AQUA) Lat,Lon (AQUA) SZA (AQUA ) Date (NOAA-19) Time (NOAA-19) Lat,Lon (NOAA-19) SZA (NOAA-19 ) Distance(km) Time Diff (sec)
1 10/29/2023 23:20:22 76.12,-177.05 89.67 10/29/2023 23:19:46 76.13,-176.93 89.68 3.20 36
2 10/30/2023 00:09:46 -76.17, -9.57 90.27 10/30/2023 00:10:41 -76.15, -9.56 90.29 1.83 55
3 11/01/2023 04:01:39 76.10, 112.73 90.36 11/01/2023 04:01:06 76.08, 112.63 90.35 3.10 33
4 11/01/2023 04:51:03 -76.15, -79.78 89.58 11/01/2023 04:52:00 -76.14, -79.87 89.59 2.52 57
5 11/03/2023 08:42:56 76.12, 42.37 91.08 11/03/2023 08:42:24 76.11, 42.49 91.08 3.15 32
6 11/03/2023 09:32:20 -76.16,-150.13 88.87 11/03/2023 09:33:18 -76.16,-150.05 88.87 2.12 58
7 11/05/2023 13:24:11 76.08, -27.81 91.72 11/05/2023 13:23:43 76.09, -27.86 91.73 1.58 28
8 11/05/2023 14:13:35 -76.13, 139.70 88.23 11/05/2023 14:14:37 -76.14, 139.58 88.22 3.36 62
9 11/07/2023 18:05:26 76.09, -98.12 92.38 11/07/2023 18:05:01 76.11, -98.07 92.40 2.09 25
10 11/07/2023 18:54:50 -76.13, 69.40 87.57 11/07/2023 18:55:55 -76.15, 69.36 87.55 2.08 65
11 11/09/2023 22:46:40 76.09,-168.41 93.02 11/09/2023 22:46:19 76.11,-168.32 93.04 2.98 21



Historial Predications of SNOs between AQUA and NOAA-19
